Showing default

HERMES-2, 63243

Orbit data source: Space-Track

HERMES-2, 63243 is a payload satellite owned by ASI (IT) in SSO that was launched on Sat, 15 Mar 2025 UTC via an FALCON 9 launch vehicle from the Air Force Western Test Range (AFWTR). Payload-class satellites include a variety of spacecraft equipped with specific instruments for various scientific and technological missions. These include communications satellites like Starlink; space stations such as the ISS; scientific satellites like the Hubble; Earth observation satellites from companies like Planet Labs, Umbra, and HawkEye 360; GPS; miniature CubeSats for education and research; and military/defense satellites.

Loading next visibility...
Identifier
63243, 2025-052AK
Orbit
SSO
Country
Flag of ITIT
Related business
Manufacturer
MILANP/INAFI
Mission
Operational Civil Astronomy
Bus & Motor
CUBESAT 3U, Unknown motor
Mass
5 kg wet, 5 kg dry
Launch date (UTC)
2025-03-15 (7 months ago)
Launch vehicle
FALCON 9
Launch site
Air Force Western Test Range (AFWTR)
Object type
Payload
Rocket body
Debris
Shape & HBR
Box, 0.2 m
Radar Cross Section
0.035 m², Small (<0.1 m²)

Expand to show TLE details & history
Last TLE update: 16 hours ago

TLE from 16 hours ago
0 HERMES-2
1 63243U 25052AK  25291.64639106  .00030321  00000-0  13039-2 0  9993
2 63243  97.4113 183.6058 0003506 229.1549 130.9384 15.22587038 33164
Epoch: 2025-10-18T15:30Z
TLE epoch observation values (Epoch: 2025-10-18T15:30:48.187Z)
Latitude
-0.00003°
Longitude
-76.4694°
Altitude
502.715 km
Speed
7.612 km/s
True Right ascension
12h 14m 25s
True Declination
0° 00' 00"
Sunlit
Object was in daylight at epoch
Visualization orbit readout
Latitude
Unknown
Longitude
Unknown
Altitude
Unknown
Speed
Unknown
Apparent Right ascension
Unknown
Apparent Declination
Unknown
Sunlit
N/A
Visualization observer readout
Local Sidereal Time
02:01:16
Azimuth
Unknown
Elevation
Unknown
Doppler factor
Unknown
Orbital elements
Apogee altitude
497.413 km
Perigee altitude
492.594 km
Semi-major axis
6,873.14 km
Eccentricity
0.00035
Inclination
97.4113°
RAAN
183.6058°
Arg. of periapsis
229.1549°
True anomaly
130.96874°
Mean anomaly
130.9384°
Eccentric anomaly
130.95357°
Mean motion
3.80899 °/min
Orbital period
94.51 mins
BSTAR
0.0013039
Loading maneuver chart data...
Computing Atmospheric mass density...
Loading historical data...
Loading historical data...
Loading historical data...
Loading historical data...
Loading historical data...
Loading historical data...
Loading historical data...

Documentation

Showing up to 5 results
|